Wind_Speed
19 23 25 25 24 24 26 28 28 26 23 25 30 35 40 45 44 47 49 47 34 24 21 22 17 19 17 6 5 6 5 6 12 20 29 31 33 32 35 42 45 51 57 63 61 53 50
18 22 25 25 26 25 26 27 29 30 27 27 30 35 40 45 44 45 47 45 34 26 24 22 17 15 17 6 3 7 6 2 8 21 25 29 31 29 34 41 44 51 56 57 51 47 47
17 20 24 26 27 27 26 27 29 32 32 31 30 34 40 45 46 44 46 44 35 28 24 24 18 11 10 9 1 10 8 2 10 21 27 28 28 31 36 41 44 53 55 49 46 46 47
15 19 22 26 28 28 28 28 29 31 33 33 32 34 39 43 47 44 46 43 37 29 23 24 17 15 3 10 11 5 6 6 9 18 24 19 30 34 35 41 47 52 49 47 47 48 48
14 18 21 24 28 29 27 28 29 30 33 34 34 33 38 42 45 44 44 43 39 30 25 29 28 18 12 12 17 14 7 6 10 16 19 23 27 31 32 38 46 46 46 47 46 48 47
13 16 20 22 26 29 28 26 29 30 31 35 36 35 35 40 43 45 40 41 39 29 25 28 28 24 24 15 16 14 14 6 12 11 12 13 24 27 30 35 43 45 47 48 48 49 47
13 15 18 21 24 29 28 26 27 30 29 33 36 37 33 38 41 44 41 39 36 32 26 25 27 29 21 18 14 6 11 18 16 17 15 12 18 21 28 36 41 43 46 47 48 48 46
13 14 17 20 22 27 29 27 25 28 29 31 35 36 33 35 39 42 43 37 35 34 33 30 23 24 24 19 14 14 13 14 18 17 17 12 17 20 28 34 38 42 44 47 46 45 42
12 14 16 19 21 25 27 27 25 26 27 29 33 34 34 31 36 38 41 36 33 33 34 36 32 18 19 21 20 12 14 12 13 10 9 13 21 24 30 35 38 40 42 43 42 42 41
12 13 13 17 19 22 26 26 24 25 26 27 30 32 32 28 30 35 37 39 33 32 34 35 34 28 17 13 15 15 15 16 13 10 8 15 24 29 32 34 37 38 40 39 39 38 38
13 12 12 14 17 20 25 26 24 24 25 26 27 29 30 30 27 31 33 36 33 33 34 32 32 33 28 27 21 14 14 13 14 13 17 16 27 29 31 32 34 35 36 37 36 35 34
14 13 12 12 14 18 22 25 24 24 23 23 24 26 27 28 26 27 30 32 35 31 30 29 31 31 30 30 29 17 12 17 18 21 24 24 24 28 30 29 31 33 32 32 31 31 31
16 14 12 12 13 15 19 23 23 22 22 19 21 24 25 27 28 25 26 29 31 36 32 29 28 30 27 26 28 26 24 24 26 27 27 26 24 25 27 27 28 30 30 29 27 27 26
18 15 14 12 11 13 15 19 20 20 19 15 17 21 24 27 28 27 26 27 30 33 34 30 27 27 29 25 27 28 27 27 30 30 26 26 26 24 26 27 27 26 26 26 24 24 22
17 16 15 13 10 12 14 16 16 16 16 14 13 16 21 24 26 28 28 26 28 31 31 32 29 27 25 26 25 27 27 25 22 28 29 25 24 26 27 27 26 23 22 20 20 20 20
17 16 16 14 11 11 13 16 15 14 14 12 10 11 15 19 23 26 28 28 29 28 29 29 29 29 24 24 25 24 23 25 22 21 30 29 24 24 25 24 23 22 20 18 16 16 17
18 17 16 16 14 12 13 14 15 13 12 10 7 8 11 14 19 22 24 26 28 28 28 28 28 28 29 25 22 23 22 21 21 19 20 28 28 24 23 22 21 18 15 12 13 14 16
22 19 18 17 16 16 14 15 16 14 12 9 5 5 7 11 15 18 19 23 25 27 28 28 28 27 26 26 26 22 20 20 19 17 16 17 19 25 24 22 18 15 13 13 14 15 16
28 24 21 21 20 18 19 17 17 18 14 12 9 6 6 8 10 13 16 19 21 22 24 26 27 28 27 26 24 23 22 19 17 16 15 13 13 15 20 20 20 18 17 18 20 22 23
33 29 26 25 24 24 23 22 21 21 19 16 13 10 9 9 10 10 12 14 16 18 20 22 22 22 23 25 26 25 23 20 18 13 9 9 8 7 6 10 13 16 20 23 25 26 28
37 33 31 29 28 28 29 26 25 23 21 21 18 14 11 11 10 11 10 10 11 13 15 17 19 20 19 19 19 20 21 20 19 16 12 10 6 2 3 5 7 10 15 18 22 26 28
40 40 38 36 34 32 32 31 27 24 21 22 20 17 15 13 13 13 13 13 12 12 12 12 13 16 17 17 18 16 17 15 13 15 13 11 9 4 4 6 9 13 17 20 23 26 29
46 43 43 42 42 42 39 35 30 24 20 20 21 20 17 16 16 15 14 14 14 16 17 17 15 14 13 13 15 15 15 14 13 13 11 11 7 7 11 9 9 11 19 21 23 25 29
52 51 48 46 46 41 40 34 30 26 23 22 22 22 21 20 21 19 16 15 16 17 19 21 21 20 18 16 14 14 15 15 14 14 14 15 18 21 18 18 16 17 20 22 24 29 32
51 50 46 40 41 37 37 33 30 29 26 26 25 26 26 26 27 25 23 22 21 22 25 25 24 23 22 22 21 19 20 20 20 18 18 20 23 25 24 28 30 25 27 31 32 36 37
46 45 41 40 39 37 36 35 33 32 32 31 31 30 30 30 30 31 30 30 31 32 32 31 29 28 27 27 27 26 26 26 27 27 25 26 28 30 31 35 37 34 35 37 41 45 42
44 43 42 40 39 39 38 38 38 38 37 36 35 36 35 35 34 34 34 36 38 39 38 36 33 32 33 33 32 32 32 32 32 31 32 34 36 37 37 40 41 40 43 45 45 47 50
50 48 48 46 42 42 43 42 42 42 40 39 40 41 41 41 40 40 40 41 42 43 41 39 36 34 36 35 37 36 37 36 35 37 38 39 41 42 44 44 45 46 49 51 54 57 57
57 56 55 54 52 49 46 48 48 46 44 44 43 44 45 46 46 47 46 46 45 45 42 39 38 37 38 38 40 42 41 41 42 44 43 45 45 47 49 50 50 52 55 58 60 59 58
Wind_Direction
28 23 21 17 9 5 6 4 0 358 353 356 359 358 357 1 1 359 1 2 6 359 351 344 345 336 345 338 232 201 184 191 206 201 191 192 194 197 200 200 202 204 201 205 209 206 207
27 26 24 20 14 9 8 6 5 5 0 358 2 358 358 3 3 2 2 5 6 360 6 350 345 350 0 335 211 197 184 182 189 186 187 190 195 196 198 196 197 202 197 200 202 200 200
24 23 22 21 15 12 9 7 6 5 5 4 5 1 360 4 6 3 6 6 7 11 16 3 355 352 13 11 115 181 192 235 192 171 175 194 198 196 194 196 196 196 194 192 194 195 194
18 18 17 16 14 13 11 8 6 5 6 5 5 3 2 6 8 6 6 8 8 15 21 24 15 3 16 57 64 129 177 177 168 174 189 154 185 188 193 194 194 192 189 186 187 190 190
7 13 11 11 12 11 9 10 8 5 6 6 3 5 4 7 10 10 7 11 11 14 29 39 37 24 34 84 77 79 103 159 172 173 175 170 181 183 189 190 193 190 180 180 183 187 188
355 5 6 5 7 7 7 8 10 7 6 7 6 7 6 9 12 13 12 13 13 19 28 27 36 47 58 95 87 95 98 125 157 139 164 164 177 181 189 188 193 184 174 176 180 185 187
341 353 360 0 2 4 5 6 10 10 8 9 9 10 7 9 13 15 15 16 20 21 13 14 30 39 63 73 75 85 103 113 133 134 137 142 171 185 186 179 185 177 171 175 180 185 187
322 339 350 353 357 1 4 4 8 11 10 9 10 12 10 9 13 17 19 19 21 24 30 31 25 33 52 66 81 93 112 114 127 133 147 152 165 175 173 172 175 172 170 176 180 183 187
306 323 339 348 354 357 3 5 6 9 10 10 10 11 13 11 14 18 22 23 26 29 33 34 34 31 37 56 70 98 121 113 117 126 149 170 152 155 160 169 170 170 170 175 179 183 187
301 308 328 340 349 353 1 6 5 7 6 9 10 11 13 13 15 19 24 26 28 31 36 38 37 40 49 39 38 71 93 104 119 126 128 159 153 150 158 164 167 167 168 172 178 185 192
299 297 315 332 343 349 358 5 8 3 4 8 13 14 14 16 16 19 25 30 32 35 40 38 38 44 47 48 49 92 98 116 104 126 132 147 148 147 154 162 164 161 166 172 179 185 193
301 291 302 320 336 346 355 4 6 5 2 10 17 19 19 19 19 22 23 30 33 40 44 42 41 45 54 51 51 73 78 101 98 103 110 129 140 142 149 157 160 157 161 170 178 187 195
302 289 290 306 327 342 354 359 2 2 0 13 22 26 24 23 21 23 25 29 34 41 41 45 47 47 50 57 54 65 80 92 96 97 100 117 125 136 141 148 153 156 160 169 179 188 197
301 287 286 295 319 333 347 354 357 357 1 13 30 34 35 34 31 27 26 27 30 38 41 44 51 53 50 57 64 63 69 86 92 96 101 110 118 129 133 139 144 150 157 168 180 190 198
295 289 280 289 306 319 335 347 346 350 358 3 29 41 43 39 38 36 34 29 32 34 40 44 46 55 60 60 66 69 75 73 86 103 101 104 116 128 132 132 139 145 151 164 175 189 205
286 285 277 280 290 303 321 336 338 336 343 358 21 33 41 41 41 41 39 38 40 39 37 40 48 50 58 65 68 74 75 75 73 98 110 105 110 121 128 130 131 139 145 155 168 188 208
278 276 272 275 280 286 304 322 329 321 324 337 8 20 31 36 38 41 41 42 40 42 45 43 39 46 51 58 66 70 77 80 80 90 108 118 116 116 122 126 129 138 148 162 181 196 212
271 267 268 268 272 279 287 303 315 314 304 309 331 7 24 36 38 35 36 41 47 44 43 46 47 44 47 51 57 65 71 78 87 94 103 112 132 137 136 141 148 159 175 199 217 223 230
267 263 263 267 270 272 280 289 300 306 290 283 295 318 349 18 31 35 34 35 40 45 47 48 46 46 47 48 51 57 60 68 81 92 103 121 130 146 156 160 166 177 193 209 222 229 233
262 260 259 262 267 273 276 281 287 294 287 264 271 284 312 332 354 9 17 26 33 33 37 37 44 46 46 50 49 48 50 58 61 66 79 92 109 131 162 182 191 202 209 214 221 226 227
262 260 260 262 267 271 276 277 282 283 280 269 266 268 280 299 316 329 342 360 11 19 21 22 23 26 34 45 48 55 54 50 48 50 52 50 64 96 196 221 233 241 245 247 248 250 252
252 255 260 264 265 266 269 275 279 280 268 267 266 265 271 281 293 305 313 323 333 343 351 360 6 9 10 15 19 27 28 39 54 42 37 30 26 360 296 274 274 268 266 263 264 264 264
253 255 260 264 267 267 268 268 268 260 257 261 264 265 267 277 282 289 298 309 319 326 328 328 332 336 341 349 352 355 357 357 359 360 0 356 351 333 316 295 269 265 272 276 272 270 272
250 253 259 267 266 265 265 263 258 250 246 248 255 262 265 269 281 288 293 300 306 312 315 315 316 315 314 315 319 321 327 330 328 327 323 318 314 311 307 293 278 275 276 273 271 272 273
252 252 257 260 264 262 263 259 256 250 243 245 249 255 262 269 276 277 282 287 295 302 305 307 305 303 302 300 300 300 301 302 305 312 309 305 300 297 291 288 288 288 289 283 279 277 274
252 244 248 253 257 258 260 261 257 253 248 247 248 253 260 265 270 273 275 277 281 290 296 296 297 298 296 294 294 296 297 299 300 300 299 293 293 289 288 288 287 286 281 279 279 279 280
248 249 250 251 253 254 256 258 258 257 256 257 260 261 261 264 266 268 271 275 278 281 285 287 290 292 292 292 292 294 294 295 296 295 294 292 293 291 287 285 285 285 286 286 280 285 279
246 252 253 252 255 258 257 257 259 258 257 259 261 263 266 267 267 269 271 271 273 277 280 282 283 285 286 289 291 290 290 290 291 293 294 293 292 293 289 286 287 288 285 283 283 283 283
248 252 251 252 254 257 258 257 257 256 257 258 262 263 264 266 268 270 272 272 276 278 277 279 282 283 283 284 285 286 285 286 289 288 290 289 288 290 292 288 285 284 283 283 283 285 286
Height
5832 5828 5825 5820 5817 5812 5806 5800 5794 5788 5782 5776 5769 5760 5750 5739 5728 5716 5705 5692 5681 5673 5667 5659 5654 5650 5645 5642 5641 5641 5643 5644 5647 5650 5654 5661 5668 5675 5683 5693 5704 5713 5723 5735 5751 5768 5780
5830 5828 5824 5820 5816 5810 5805 5800 5794 5787 5781 5775 5767 5759 5749 5738 5727 5716 5705 5693 5682 5674 5668 5660 5654 5650 5646 5642 5641 5642 5644 5645 5647 5650 5655 5660 5666 5673 5681 5690 5699 5710 5720 5732 5749 5764 5777
5830 5827 5823 5819 5814 5809 5804 5799 5794 5787 5780 5774 5767 5758 5748 5738 5727 5716 5706 5694 5685 5676 5669 5661 5655 5650 5647 5644 5642 5643 5645 5646 5648 5651 5655 5658 5665 5672 5680 5687 5696 5707 5718 5732 5747 5761 5773
5829 5826 5822 5818 5814 5809 5804 5799 5794 5787 5781 5773 5766 5758 5749 5739 5729 5717 5707 5697 5687 5679 5671 5663 5656 5650 5647 5645 5645 5646 5647 5648 5649 5653 5655 5659 5665 5672 5679 5686 5694 5706 5717 5730 5745 5758 5769
5828 5824 5821 5817 5813 5808 5803 5798 5793 5787 5781 5773 5766 5759 5750 5741 5731 5720 5709 5699 5689 5682 5674 5667 5659 5652 5649 5649 5648 5648 5648 5649 5651 5655 5659 5662 5667 5672 5680 5686 5696 5707 5719 5731 5746 5757 5767
5827 5823 5820 5816 5812 5808 5803 5798 5793 5787 5781 5774 5767 5759 5751 5743 5734 5724 5714 5703 5693 5686 5679 5674 5665 5661 5653 5653 5651 5651 5652 5652 5655 5659 5661 5664 5669 5675 5681 5689 5700 5709 5718 5732 5744 5756 5764
5826 5823 5819 5815 5811 5807 5803 5798 5793 5787 5781 5775 5768 5760 5753 5745 5737 5727 5717 5708 5702 5692 5684 5678 5672 5665 5660 5658 5657 5656 5656 5657 5659 5662 5665 5668 5672 5677 5682 5690 5701 5711 5720 5733 5744 5754 5763
5824 5821 5819 5815 5811 5807 5802 5798 5793 5788 5782 5776 5769 5761 5754 5747 5740 5731 5722 5713 5706 5698 5689 5681 5675 5671 5668 5663 5662 5660 5661 5662 5662 5664 5668 5672 5675 5680 5686 5694 5704 5713 5722 5733 5744 5754 5764
5821 5820 5818 5814 5811 5807 5802 5797 5793 5788 5783 5777 5770 5763 5756 5750 5742 5735 5726 5718 5710 5703 5695 5687 5681 5677 5673 5671 5667 5666 5666 5667 5668 5669 5671 5674 5677 5682 5689 5698 5707 5715 5724 5736 5747 5755 5763
5819 5817 5816 5813 5810 5807 5802 5797 5793 5788 5784 5778 5771 5765 5758 5752 5746 5738 5731 5722 5715 5708 5700 5694 5689 5684 5678 5675 5672 5671 5671 5672 5672 5673 5674 5676 5680 5685 5693 5703 5710 5718 5727 5737 5746 5755 5763
5816 5815 5813 5811 5809 5806 5802 5797 5793 5789 5785 5780 5773 5767 5760 5753 5748 5741 5735 5727 5719 5712 5706 5702 5695 5690 5686 5682 5677 5675 5675 5675 5675 5676 5678 5682 5685 5691 5698 5707 5715 5723 5731 5739 5748 5756 5764
5813 5812 5811 5809 5807 5805 5801 5797 5793 5790 5786 5781 5775 5769 5763 5757 5751 5745 5738 5732 5725 5718 5711 5707 5703 5697 5692 5690 5686 5683 5681 5680 5680 5681 5681 5687 5693 5698 5704 5712 5720 5726 5735 5743 5751 5758 5766
5810 5809 5808 5807 5806 5804 5801 5797 5793 5790 5787 5782 5777 5771 5765 5759 5753 5748 5743 5737 5732 5722 5717 5713 5708 5703 5700 5697 5694 5692 5689 5687 5687 5689 5690 5694 5700 5705 5711 5718 5725 5732 5739 5747 5755 5761 5768
5806 5805 5805 5804 5803 5802 5799 5796 5793 5790 5787 5784 5779 5773 5768 5762 5757 5751 5747 5741 5736 5728 5723 5718 5713 5710 5708 5704 5702 5699 5698 5697 5695 5697 5701 5704 5708 5712 5718 5723 5730 5737 5744 5751 5757 5763 5769
5801 5802 5802 5802 5800 5799 5797 5795 5792 5789 5786 5784 5780 5776 5771 5766 5760 5755 5751 5747 5740 5735 5730 5725 5721 5716 5713 5711 5710 5708 5706 5705 5704 5704 5709 5712 5716 5719 5725 5729 5735 5742 5748 5755 5760 5765 5769
5796 5797 5797 5797 5797 5796 5795 5794 5791 5788 5786 5784 5781 5777 5774 5769 5764 5760 5756 5751 5745 5740 5735 5731 5727 5723 5720 5717 5716 5715 5715 5714 5713 5712 5713 5719 5724 5727 5731 5736 5740 5745 5751 5757 5761 5767 5770
5792 5791 5792 5792 5792 5792 5791 5790 5789 5787 5785 5783 5780 5778 5775 5771 5768 5764 5760 5756 5751 5746 5741 5737 5733 5730 5728 5724 5722 5722 5721 5722 5721 5722 5722 5723 5728 5735 5738 5742 5745 5750 5754 5759 5763 5767 5769
5786 5786 5786 5787 5787 5788 5787 5787 5786 5784 5783 5782 5779 5778 5775 5772 5770 5766 5763 5760 5756 5752 5748 5744 5740 5736 5734 5731 5729 5727 5727 5727 5728 5730 5731 5732 5733 5735 5740 5743 5747 5751 5754 5758 5762 5766 5767
5781 5780 5780 5781 5782 5782 5782 5783 5782 5781 5780 5780 5778 5776 5774 5772 5769 5766 5763 5761 5758 5756 5753 5750 5747 5744 5740 5738 5736 5734 5733 5733 5734 5734 5736 5738 5740 5740 5742 5745 5747 5749 5752 5755 5758 5760 5762
5773 5774 5774 5775 5775 5776 5776 5777 5777 5777 5776 5776 5776 5775 5773 5771 5769 5766 5764 5762 5759 5757 5755 5753 5752 5750 5747 5744 5742 5740 5739 5739 5739 5739 5740 5741 5742 5744 5746 5746 5747 5748 5749 5750 5752 5754 5755
5764 5766 5766 5767 5768 5769 5770 5770 5771 5771 5770 5771 5771 5770 5769 5769 5767 5765 5764 5762 5759 5758 5756 5754 5753 5752 5751 5749 5747 5746 5745 5744 5743 5743 5744 5743 5743 5744 5745 5746 5747 5748 5749 5749 5750 5750 5751
5753 5755 5756 5758 5760 5761 5761 5762 5762 5764 5764 5765 5765 5765 5765 5764 5764 5763 5761 5760 5758 5757 5756 5755 5753 5752 5751 5751 5750 5749 5748 5747 5747 5747 5746 5746 5746 5746 5745 5745 5745 5746 5745 5745 5745 5744 5744
5742 5744 5746 5748 5750 5751 5752 5752 5754 5755 5756 5758 5760 5761 5760 5760 5759 5759 5759 5758 5757 5756 5755 5753 5752 5751 5750 5749 5748 5748 5747 5747 5746 5746 5746 5747 5747 5746 5745 5745 5744 5745 5741 5740 5739 5738 5736
5728 5732 5735 5737 5738 5740 5741 5742 5744 5746 5747 5748 5751 5754 5755 5755 5754 5754 5754 5753 5753 5752 5752 5750 5749 5748 5747 5746 5746 5746 5745 5744 5744 5743 5743 5742 5742 5741 5741 5740 5740 5738 5736 5735 5733 5730 5728
5714 5719 5723 5725 5728 5730 5731 5733 5734 5736 5738 5740 5741 5744 5746 5747 5747 5747 5747 5747 5747 5746 5745 5744 5744 5743 5741 5741 5740 5740 5739 5740 5739 5739 5738 5736 5735 5734 5734 5733 5731 5731 5730 5727 5723 5720 5718
5703 5707 5709 5713 5717 5720 5722 5724 5725 5727 5729 5731 5732 5734 5736 5737 5738 5739 5739 5738 5738 5738 5738 5737 5736 5736 5735 5733 5733 5732 5731 5731 5730 5731 5731 5729 5727 5725 5723 5721 5719 5722 5720 5716 5713 5709 5709
5692 5695 5698 5702 5705 5707 5710 5713 5716 5717 5719 5721 5723 5724 5725 5727 5728 5728 5729 5730 5730 5729 5728 5727 5727 5727 5726 5725 5724 5724 5723 5723 5722 5721 5721 5719 5717 5715 5712 5708 5706 5705 5703 5700 5698 5699 5691
5680 5683 5686 5689 5693 5696 5698 5700 5703 5705 5707 5709 5711 5712 5715 5717 5717 5718 5718 5718 5717 5718 5718 5718 5717 5716 5714 5715 5715 5713 5711 5711 5711 5710 5709 5707 5704 5703 5701 5697 5696 5694 5690 5687 5682 5678 5675
5665 5669 5673 5676 5680 5684 5687 5688 5690 5692 5694 5696 5698 5699 5701 5703 5705 5705 5706 5706 5707 5707 5707 5707 5706 5704 5703 5703 5703 5701 5700 5699 5699 5698 5697 5693 5691 5688 5688 5685 5680 5675 5672 5668 5664 5661 5659